Regional Weather Roundup
Issued by NWS Bismarck, ND

Home | Current Version | Previous Version | Text Only | Print | Product List | Glossary On
Versions: 1 2 3 4 5 6 7 8 9 10 11 12 13 14 15 16 17 18 19 20 21 22 23 24 25 26 27 28 29 30 31 32 33 34 35 36 37 38 39 40 41 42 43 44 45 46 47 48 49 50
000
ASUS43 KBIS 311510
RWRBIS

NWR BROADCAST TEXT
NATIONAL WEATHER SERVICE BISMARCK ND
1000 AM CDT WED AUG 31 2016

NOTE: "FAIR" INDICATES FEW OR NO CLOUDS BELOW 12,000 FEET WITH NO
SIGNIFICANT WEATHER AND/OR OBSTRUCTIONS TO VISIBILITY.


CITY           SKY/WX    TMP DP  RH WIND       PRES   REMARKS
WILLISTON      SUNNY     72  57  59 SE10      30.10F
MINOT          CLOUDY    66  55  67 E16G22    30.18F
MINOT AFB      MOSUNNY   66  52  59 SE16G26   30.18F
BISMARCK       CLOUDY    66  58  75 SE10      30.21R
DICKINSON      MOSUNNY   65  60  84 SE17      30.15R
GARRISON         N/A     69  61  75 SE13G18   30.19R
HETTINGER ARPT SUNNY     68  60  75 SE12      30.19R
JAMESTOWN      PTSUNNY   68  56  65 SE7       30.26R
CARRINGTON     FAIR      68  55  64 SE9       30.28R
HAZEN          FAIR      72  57  60 SE14      30.20R
LINTON         PTSUNNY   64  63  94 E12G23    30.25R
MANDAN         FAIR      68  59  73 SE13      30.22S
OAKES            N/A    N/A N/A N/A MISG        N/A
RUGBY          FAIR      66  50  55 E14       30.25S
STANLEY        FAIR      66  61  82 SE14G21   30.19S
WATFORD CITY   FAIR      68  57  68 SE17G24   30.12S
$$

CITY           SKY/WX    TMP DP  RH WIND       PRES   REMARKS
GRAND FORKS    MOSUNNY   64  52  64 NE7       30.27F
GRAND FORKS AF MOSUNNY   60  53  77 NE6       30.28S
DEVILS LAKE    SUNNY     66  49  54 E8        30.28S
FARGO          SUNNY     68  57  68 NE3       30.25F
CAVALIER       FAIR      61  52  72 NE3       30.31S
GRAFTON        FAIR      63  54  72 NE5       30.31S
GWINNER        FAIR      68  61  77 NE5       30.26S
LANGDON        FAIR      64  52  63 E10       30.31R
ROLLA          FAIR      61  50  67 E9        30.30S
$$

CITY           SKY/WX    TMP DP  RH WIND       PRES   REMARKS
ABERDEEN       CLOUDY    66  60  81 S5        30.25R
MOBRIDGE       MOSUNNY   73  59  61 SE17      30.19S
BUFFALO          N/A     69  61  75 SE7       30.11R
RAPID CITY     SUNNY     69  61  75 SE7       30.19S
GLASGOW        PTSUNNY   69  56  62 E20       29.98S
SIDNEY         SUNNY     70  58  65 SE8       30.07
WOLF POINT     MOSUNNY   71  57  61 E12       30.01F
GLENDIVE       SUNNY     74  56  53 SE10      30.06S
MILES CITY     SUNNY     75  52  44 SE15      30.02S
BAKER          SUNNY     72  55  55 SE13      30.12S
$$

CITY           SKY/WX    TMP DP  RH WIND       PRES   REMARKS
BILLINGS       MOSUNNY   70  45  40 SW6       30.03F
GREAT FALLS    SUNNY     64  49  57 W5        29.98S
REGINA         PTSUNNY   66  52  59 E25G31    30.14F
ESTEVAN        PTSUNNY   61  50  67 E20G28    30.16S
$$





USA.gov is the U.S. government's official web portal to all federal, state and local government web resources and services.